Retour au catalogue

SL-14 DEB

ActifPO
NORAD 20308·DEBRIS·🇷🇺 Russia

Lancé Sep 28, 1989 depuis Plesetsk Cosmodrome

Loading…

Prochains Passages (prochaines 24 heures)

TLE

FraisSource: Space-Track

Époque: Sep 14, 2026, 11:09 UTC

1 20308U 89080G   26257.46472713  .00001902  00000-0  55675-3 0  9997
2 20308  82.6916 349.1160 0876781  86.6374 283.4531 13.20013333731031

Suivez SL-14 DEB en temps réel avec AllMySat

Download on the App Store